Location: Unspecified
(0.0000°N, 0.0000°E)
Time: 16:52:17
(UTC+00:00)

Vanguard 3 - Pass Details

Date: 04 February 2023
Orbit: 509 x 3249 km, 33.3° (Epoch: 20 March)

Event Time Altitude Azimuth Distance (km) Brightness Sun altitude
Rises 06:40:47 0° 255° (WSW) 6,402 11.2 6.5°
Reaches altitude 10° 06:51:50 10° 218° (SW) 4,407 10.7 9.1°
Maximum altitude 06:53:02 10° 213° (SSW) 4,267 10.7 9.4°
Drops below altitude 10° 06:54:11 10° 207° (SSW) 4,158 10.7 9.7°
Sets 07:01:46 0° 165° (SSE) 4,265 11.3 11.5°
